1507759200.5,22874,11.56,73922.8,-1.59,-2.43,-2.35,0,*57
1507759201.7,22875,11.56,73922.3,-1.55,-2.35,-2.35,0,*5B
1507759202.9,22876,11.56,73920.5,-1.59,-2.35,-2.35,0,*54
1507759204.1,22877,11.56,73920.0,-1.55,-2.35,-2.35,0,*59
1507759205.3,22878,11.56,73926.0,-1.55,-2.43,-2.35,0,*57
1507759206.5,22879,11.56,73926.8,-1.59,-2.35,-2.35,0,*5B
1507759207.7,22880,11.56,73924.3,-1.59,-2.35,-2.35,0,*5D
1507759208.9,22881,11.56,73926.8,-1.59,-2.35,-2.35,0,*5C
1507759210.1,22882,11.56,73926.0,-1.55,-2.35,-2.35,0,*53
1507759211.3,22883,11.56,73924.3,-1.59,-2.43,-2.35,0,*5F
1507759212.5,22884,11.56,73920.8,-1.59,-2.35,-2.35,0,*59
1507759213.7,22885,11.56,73924.0,-1.55,-2.35,-2.35,0,*54
1507759214.9,22886,11.56,73926.0,-1.59,-2.35,-2.35,0,*5B
1507759216.1,22887,11.56,73924.3,-1.59,-2.35,-2.35,0,*5A
1507759217.29,22888,11.56,73924.0,-1.55,-2.43,-2.35,0,*58
1507759218.49,22889,11.56,73926.5,-1.59,-2.35,-2.35,0,*54
1507759219.69,22890,11.56,73930.0,-1.55,-2.35,-2.35,0,*50
1507759220.89,22891,11.56,73924.5,-1.55,-2.35,-2.35,0,*51
1507759222.09,22892,11.56,73920.0,-1.55,-2.35,-2.35,0,*52
1507759223.29,22893,11.56,73926.8,-1.55,-2.35,-2.35,0,*53
1507759224.48,22894,11.56,73920.8,-1.55,-2.35,-2.35,0,*54
1507759225.68,22895,11.56,73924.5,-1.55,-2.35,-2.31,0,*51
1507759226.89,22896,11.56,73922.0,-1.59,-2.35,-2.31,0,*5E
1507759228.09,22897,11.56,73920.8,-1.55,-2.35,-2.31,0,*53
1507759229.29,22898,11.56,73924.3,-1.59,-2.43,-2.35,0,*55
1507759230.49,22899,11.56,73924.3,-1.55,-2.35,-2.35,0,*59
1507759231.69,22900,11.56,73924.0,-1.59,-2.35,-2.35,0,*54
1507759232.89,22901,11.56,73924.0,-1.55,-2.35,-2.35,0,*59
1507759234.09,22902,11.56,73926.8,-1.55,-2.35,-2.31,0,*5E
1507759235.29,22903,11.56,73922.0,-1.55,-2.35,-2.31,0,*5F
1507759236.49,22904,11.56,73926.0,-1.55,-2.35,-2.31,0,*58
1507759237.69,22905,11.56,73924.8,-1.59,-2.35,-2.31,0,*55
1507759238.9,22906,11.56,73926.3,-1.59,-2.35,-2.31,0,*56
1507759240.1,22907,11.56,73924.3,-1.59,-2.35,-2.31,0,*57
1507759241.3,22908,11.56,73922.5,-1.59,-2.35,-2.31,0,*58
1507759242.51,22909,11.56,73922.3,-1.59,-2.35,-2.31,0,*59
1507759243.71,22910,11.56,73924.0,-1.55,-2.35,-2.31,0,*5D
1507759244.91,22911,11.56,73926.8,-1.55,-2.35,-2.35,0,*58
1507759246.11,22912,11.56,73928.5,-1.59,-2.43,-2.31,0,*52
1507759247.31,22913,11.56,73930.0,-1.55,-2.35,-2.31,0,*5E
1507759248.51,22914,11.56,73926.0,-1.55,-2.35,-2.31,0,*59
1507759249.72,22915,11.56,73924.8,-1.59,-2.35,-2.31,0,*54
1507759250.92,22916,11.56,73924.8,-1.59,-2.35,-2.31,0,*57
1507759252.12,22917,11.56,73928.3,-1.55,-2.35,-2.31,0,*5A
1507759253.32,22918,11.56,73928.0,-1.55,-2.35,-2.31,0,*55
1507759254.52,22919,11.56,73924.8,-1.55,-2.35,-2.31,0,*54
1507759255.72,22920,11.56,73924.8,-1.55,-2.35,-2.31,0,*5E
1507759256.93,22921,11.56,73926.0,-1.59,-2.35,-2.31,0,*53
1507759258.13,22922,11.56,73926.5,-1.55,-2.35,-2.31,0,*5C
1507759259.33,22923,11.56,73928.8,-1.59,-2.35,-2.31,0,*51
1507759260.53,22924,11.56,73932.3,-1.59,-2.35,-2.35,0,*52
1507759261.73,22925,11.56,73928.5,-1.55,-2.35,-2.35,0,*5F
1507759262.93,22926,11.56,73934.5,-1.55,-2.35,-2.31,0,*58
1507759264.13,22927,11.56,73932.5,-1.55,-2.35,-2.31,0,*59
1507759265.33,22928,11.56,73934.8,-1.55,-2.43,-2.31,0,*57
1507759266.53,22929,11.56,73936.3,-1.55,-2.35,-2.31,0,*57
1507759267.74,22930,11.56,73934.3,-1.55,-2.35,-2.31,0,*5F
1507759268.94,22931,11.56,73938.0,-1.55,-2.35,-2.31,0,*5E
1507759270.14,22932,11.56,73932.8,-1.55,-2.35,-2.31,0,*5D
1507759271.34,22933,11.56,73930.3,-1.55,-2.31,-2.31,0,*58
1507759272.55,22934,11.56,73934.0,-1.55,-2.31,-2.31,0,*5F
1507759273.75,22935,11.56,73930.0,-1.55,-2.31,-2.31,0,*5E
1507759274.96,22936,11.56,73928.8,-1.55,-2.31,-2.31,0,*5D
1507759276.16,22937,11.56,73930.0,-1.55,-2.31,-2.31,0,*5C
1507759277.36,22938,11.56,73930.0,-1.55,-2.31,-2.31,0,*53
1507759278.57,22939,11.56,73924.5,-1.55,-2.31,-2.31,0,*52
1507759279.77,22940,11.56,73926.8,-1.55,-2.27,-2.31,0,*5B
1507759280.98,22941,11.56,73926.0,-1.59,-2.31,-2.31,0,*51
1507759282.17,22942,11.56,73928.0,-1.55,-2.31,-2.27,0,*59
1507759283.37,22943,11.56,73924.5,-1.55,-2.31,-2.27,0,*58
1507759284.59,22944,11.56,73924.8,-1.53,-2.27,-2.27,0,*5E
1507759285.79,22945,11.56,73922.3,-1.55,-2.31,-2.31,0,*59
1507759286.99,22946,11.56,73922.3,-1.55,-2.35,-2.31,0,*5E
1507759288.2,22947,11.56,73926.3,-1.55,-2.31,-2.31,0,*5B
1507759289.4,22948,11.56,73930.8,-1.59,-2.35,-2.31,0,*5C
1507759290.6,22949,11.56,73928.8,-1.55,-2.31,-2.31,0,*55
1507759291.8,22950,11.56,73926.3,-1.55,-2.31,-2.27,0,*5A
1507759293.0,22951,11.56,73922.5,-1.55,-2.31,-2.27,0,*5B
1507759294.2,22952,11.56,73922.5,-1.55,-2.31,-2.31,0,*5F
1507759295.4,22953,11.56,73922.0,-1.55,-2.35,-2.31,0,*5A
1507759296.61,22954,11.56,73922.5,-1.55,-2.31,-2.31,0,*59
1507759297.81,22955,11.56,73920.0,-1.55,-2.31,-2.31,0,*58
1507759299.01,22956,11.56,73914.0,-1.55,-2.27,-2.31,0,*5C
1507759300.22,22957,11.56,73916.0,-1.55,-2.31,-2.31,0,*5A
1507759301.42,22958,11.56,73920.5,-1.55,-2.35,-2.31,0,*51
1507759302.62,22959,11.56,73918.8,-1.55,-2.35,-2.31,0,*50
1507759303.82,22960,11.56,73918.8,-1.55,-2.35,-2.31,0,*5A
1507759305.02,22961,11.56,73916.3,-1.55,-2.35,-2.31,0,*5B
1507759306.24,22962,11.56,73922.0,-1.53,-2.31,-2.27,0,*5D
1507759307.44,22963,11.56,73926.8,-1.55,-2.31,-2.27,0,*5A
1507759308.64,22964,11.56,73926.3,-1.55,-2.35,-2.31,0,*5E
1507759309.86,22965,11.56,73924.3,-1.53,-2.27,-2.27,0,*5D
1507759311.06,22966,11.56,73926.0,-1.55,-2.31,-2.31,0,*58
1507759312.27,22967,11.56,73924.3,-1.55,-2.31,-2.31,0,*59
1507759313.46,22968,11.56,73920.8,-1.55,-2.31,-2.27,0,*51
1507759314.67,22969,11.56,73920.8,-1.55,-2.31,-2.31,0,*57
1507759315.87,22970,11.56,73926.8,-1.55,-2.27,-2.31,0,*58
1507759317.07,22971,11.56,73926.3,-1.55,-2.31,-2.31,0,*5E
1507759318.27,22972,11.56,73926.5,-1.55,-2.31,-2.27,0,*5A
1507759319.47,22973,11.56,73926.3,-1.55,-2.31,-2.31,0,*5C
1507759320.68,22974,11.56,73926.8,-1.55,-2.31,-2.31,0,*5B
1507759321.88,22975,11.56,73924.3,-1.55,-2.31,-2.27,0,*5D
1507759323.08,22976,11.56,73928.0,-1.55,-2.31,-2.31,0,*59
1507759324.28,22977,11.56,73928.3,-1.55,-2.31,-2.27,0,*5F
1507759325.49,22978,11.56,73926.8,-1.53,-2.27,-2.27,0,*51
1507759326.72,22979,11.56,73928.0,-1.53,-2.27,-2.23,0,*54
1507759327.94,22980,11.56,73926.5,-1.53,-2.27,-2.23,0,*52
1507759329.16,22981,11.56,73926.8,-1.53,-2.27,-2.27,0,*57
1507759330.38,22982,11.56,73930.0,-1.53,-2.27,-2.23,0,*50
1507759331.59,22983,11.56,73928.5,-1.53,-2.23,-2.27,0,*51
1507759332.81,22984,11.56,73930.0,-1.53,-2.27,-2.27,0,*52
1507759334.03,22985,11.56,73928.8,-1.53,-2.27,-2.27,0,*53
1507759335.23,22986,11.56,73930.3,-1.55,-2.31,-2.31,0,*56
1507759336.44,22987,11.56,73932.8,-1.55,-2.31,-2.31,0,*57
1507759337.64,22988,11.56,73934.0,-1.55,-2.31,-2.31,0,*58
1507759338.84,22989,11.56,73932.8,-1.55,-2.31,-2.31,0,*59
1507759340.05,22990,11.56,73934.5,-1.55,-2.31,-2.31,0,*51
1507759341.25,22991,11.56,73928.5,-1.55,-2.31,-2.31,0,*50
1507759342.46,22992,11.56,73932.0,-1.55,-2.31,-2.31,0,*53
1507759343.66,22993,11.56,73926.0,-1.55,-2.31,-2.31,0,*52
1507759344.86,22994,11.56,73928.5,-1.55,-2.31,-2.27,0,*52
1507759346.06,22995,11.56,73928.5,-1.55,-2.31,-2.31,0,*54
1507759347.27,22996,11.56,73928.5,-1.55,-2.31,-2.31,0,*57
1507759348.47,22997,11.56,73926.8,-1.55,-2.31,-2.31,0,*56
1507759349.67,22998,11.56,73926.0,-1.55,-2.31,-2.27,0,*5E
1507759350.89,22999,11.56,73926.0,-1.53,-2.27,-2.27,0,*5E
1507759352.1,23000,11.56,73924.0,-1.53,-2.27,-2.27,0,*56
1507759353.32,23001,11.56,73924.5,-1.53,-2.27,-2.27,0,*57
1507759354.54,23002,11.56,73918.0,-1.53,-2.27,-2.27,0,*54
1507759355.75,23003,11.56,73918.8,-1.53,-2.27,-2.27,0,*55
1507759356.97,23004,11.56,73918.8,-1.53,-2.31,-2.27,0,*55
1507759358.19,23005,11.56,73916.0,-1.53,-2.31,-2.27,0,*54
1507759359.39,23006,11.56,73914.0,-1.51,-2.31,-2.27,0,*55
1507759360.61,23007,11.56,73912.8,-1.53,-2.31,-2.27,0,*56
1507759361.82,23008,11.56,73910.5,-1.53,-2.27,-2.27,0,*5E
1507759363.04,23009,11.56,73900.5,-1.53,-2.27,-2.27,0,*5F
1507759364.24,23010,11.56,73906.5,-1.55,-2.31,-2.31,0,*51
1507759365.45,23011,11.56,73906.8,-1.55,-2.31,-2.31,0,*50
1507759366.65,23012,11.56,73906.8,-1.55,-2.31,-2.35,0,*57
1507759367.88,23013,11.56,73908.5,-1.53,-2.31,-2.31,0,*54
1507759369.08,23014,11.56,73910.0,-1.55,-2.35,-2.35,0,*55
1507759370.27,23015,11.56,73906.5,-1.55,-2.35,-2.35,0,*54
1507759371.47,23016,11.56,73914.0,-1.55,-2.35,-2.35,0,*57
1507759372.7,23017,11.56,73908.5,-1.53,-2.31,-2.31,0,*50
1507759373.9,23018,11.56,73910.0,-1.55,-2.35,-2.35,0,*59
1507759375.12,23019,11.56,73906.0,-1.53,-2.31,-2.31,0,*5E
1507759376.34,23020,11.56,73914.0,-1.53,-2.39,-2.39,0,*54
1507759377.54,23021,11.56,73918.8,-1.51,-2.31,-2.31,0,*57
1507759378.74,23022,11.56,73918.5,-1.55,-2.35,-2.35,0,*50
1507759379.94,23023,11.56,73918.5,-1.55,-2.35,-2.35,0,*51
1507759381.17,23024,11.56,73912.5,-1.53,-2.31,-2.31,0,*50
1507759382.39,23025,11.56,73908.3,-1.53,-2.31,-2.39,0,*59
1507759383.59,23026,11.56,73912.3,-1.55,-2.35,-2.35,0,*54
1507759384.82,23027,11.56,73918.5,-1.53,-2.31,-2.31,0,*53
1507759386.04,23028,11.56,73918.8,-1.53,-2.31,-2.31,0,*5C
1507759387.27,23029,11.56,73918.3,-1.53,-2.31,-2.31,0,*5D
1507759388.47,23030,11.56,73912.0,-1.55,-2.35,-2.35,0,*53
1507759389.67,23031,11.56,73908.0,-1.55,-2.35,-2.35,0,*52
1507759390.89,23032,11.56,73906.3,-1.53,-2.31,-2.31,0,*57
1507759392.12,23033,11.56,73908.8,-1.53,-2.31,-2.31,0,*56
1507759393.32,23034,11.56,73908.0,-1.55,-2.31,-2.35,0,*53
1507759394.53,23035,11.56,73896.8,-1.55,-2.31,-2.35,0,*52
1507759395.73,23036,11.56,73900.5,-1.55,-2.31,-2.35,0,*51
1507759396.93,23037,11.56,73908.8,-1.55,-2.31,-2.35,0,*50
1507759398.12,23038,11.56,73912.5,-1.55,-2.35,-2.35,0,*5B
1507759399.32,23039,11.56,73914.5,-1.55,-2.35,-2.35,0,*5A
1507759400.55,23040,11.56,73914.3,-1.53,-2.31,-2.31,0,*52
1507759401.78,23041,11.56,73918.8,-1.53,-2.31,-2.31,0,*53
1507759402.98,23042,11.56,73916.8,-1.55,-2.35,-2.35,0,*56
1507759404.17,23043,11.56,73924.5,-1.55,-2.35,-2.35,0,*57
1507759405.37,23044,11.56,73924.8,-1.55,-2.35,-2.35,0,*50
1507759406.57,23045,11.56,73922.0,-1.55,-2.35,-2.35,0,*51
1507759407.77,23046,11.56,73922.5,-1.55,-2.35,-2.35,0,*52
1507759408.97,23047,11.56,73924.5,-1.51,-2.31,-2.31,0,*57
1507759410.17,23048,11.56,73920.3,-1.55,-2.35,-2.31,0,*58
1507759411.37,23049,11.56,73920.5,-1.55,-2.35,-2.31,0,*59
1507759412.57,23050,11.56,73922.5,-1.55,-2.35,-2.31,0,*51
1507759413.79,23051,11.56,73924.3,-1.53,-2.31,-2.27,0,*55
1507759415.02,23052,11.56,73922.0,-1.53,-2.31,-2.31,0,*51
1507759416.25,23053,11.56,73924.8,-1.53,-2.31,-2.31,0,*50
1507759417.47,23054,11.56,73926.8,-1.53,-2.31,-2.31,0,*57
1507759418.69,23055,11.56,73932.0,-1.53,-2.39,-2.27,0,*59
1507759419.9,23056,11.56,73932.8,-1.53,-2.39,-2.27,0,*5A
1507759421.12,23057,11.56,73930.8,-1.53,-2.31,-2.27,0,*53
1507759422.34,23058,11.56,73924.0,-1.53,-2.31,-2.27,0,*5C
1507759423.56,23059,11.56,73920.5,-1.53,-2.27,-2.27,0,*5A
1507759424.78,23060,11.56,73916.3,-1.53,-2.27,-2.23,0,*54
1507759426.01,23061,11.56,73914.0,-1.53,-2.31,-2.31,0,*51
1507759427.24,23062,11.56,73916.3,-1.53,-2.31,-2.31,0,*52
1507759428.46,23063,11.56,73916.5,-1.53,-2.31,-2.31,0,*53
1507759429.66,23064,11.56,73908.3,-1.55,-2.35,-2.35,0,*52
1507759430.89,23065,11.56,73914.0,-1.53,-2.31,-2.31,0,*55
1507759432.12,23066,11.56,73914.8,-1.53,-2.31,-2.31,0,*56
1507759433.31,23067,11.56,73920.3,-1.51,-2.31,-2.39,0,*5D
1507759434.54,23068,11.56,73922.0,-1.53,-2.31,-2.27,0,*5F
1507759435.76,23069,11.56,73922.8,-1.53,-2.31,-2.27,0,*5E
1507759436.98,23070,11.56,73930.8,-1.53,-2.31,-2.27,0,*56
1507759438.2,23071,11.56,73932.3,-1.53,-2.31,-2.27,0,*57
1507759439.41,23072,11.56,73930.8,-1.53,-2.39,-2.27,0,*5C
1507759440.63,23073,11.56,73928.5,-1.53,-2.31,-2.27,0,*55
1507759441.83,23074,11.56,73932.0,-1.51,-2.31,-2.27,0,*50
1507759443.05,23075,11.56,73928.0,-1.53,-2.31,-2.27,0,*53
1507759444.27,23076,11.56,73930.8,-1.53,-2.31,-2.27,0,*50
1507759445.49,23077,11.56,73932.8,-1.53,-2.31,-2.27,0,*51
1507759446.71,23078,11.56,73930.0,-1.53,-2.31,-2.27,0,*5E
1507759447.9,23079,11.56,73924.3,-1.51,-2.31,-2.27,0,*5D
1507759449.12,23080,11.56,73930.0,-1.53,-2.31,-2.27,0,*59
1507759450.35,23081,11.56,73926.3,-1.53,-2.31,-2.31,0,*5F
1507759451.58,23082,11.56,73926.5,-1.53,-2.31,-2.31,0,*5C
1507759452.81,23083,11.56,73922.8,-1.53,-2.31,-2.31,0,*5D
1507759454.03,23084,11.56,73922.3,-1.53,-2.39,-2.31,0,*52
1507759455.26,23085,11.56,73922.3,-1.53,-2.31,-2.31,0,*5B
1507759456.48,23086,11.56,73932.5,-1.53,-2.31,-2.31,0,*58
1507759457.71,23087,11.56,73938.8,-1.53,-2.31,-2.31,0,*59
1507759458.93,23088,11.56,73942.0,-1.53,-2.31,-2.27,0,*51
1507759460.15,23089,11.56,73938.3,-1.53,-2.31,-2.27,0,*50
1507759461.37,23090,11.56,73934.3,-1.53,-2.31,-2.27,0,*58
1507759462.59,23091,11.56,73932.5,-1.53,-2.27,-2.27,0,*5E
1507759463.81,23092,11.56,73930.5,-1.53,-2.27,-2.31,0,*5A
1507759465.03,23093,11.56,73934.3,-1.53,-2.27,-2.39,0,*53
1507759466.26,23094,11.56,73924.5,-1.53,-2.31,-2.31,0,*5B
1507759467.49,23095,11.56,73926.3,-1.53,-2.31,-2.31,0,*5A
1507759468.71,23096,11.56,73928.3,-1.53,-2.31,-2.31,0,*59
1507759469.94,23097,11.56,73926.5,-1.53,-2.31,-2.31,0,*58
1507759471.17,23098,11.56,73928.5,-1.53,-2.31,-2.31,0,*57
1507759472.4,23099,11.56,73930.0,-1.53,-2.31,-2.31,0,*56
1507759473.62,23100,11.56,73930.3,-1.53,-2.27,-2.31,0,*50
1507759474.84,23101,11.56,73932.8,-1.53,-2.39,-2.31,0,*5E
1507759476.07,23102,11.56,73934.3,-1.53,-2.31,-2.31,0,*55
1507759477.27,23103,11.56,73934.3,-1.51,-2.31,-2.31,0,*56
1507759478.5,23104,11.56,73932.8,-1.53,-2.31,-2.31,0,*53
1507759479.72,23105,11.56,73932.5,-1.53,-2.31,-2.27,0,*55
1507759480.95,23106,11.56,73936.5,-1.53,-2.31,-2.31,0,*51
1507759482.17,23107,11.56,73934.8,-1.53,-2.31,-2.31,0,*50
1507759483.4,23108,11.56,73934.8,-1.53,-2.31,-2.31,0,*5F
1507759484.63,23109,11.56,73934.0,-1.53,-2.31,-2.31,0,*5E
1507759485.86,23110,11.56,73930.3,-1.53,-2.31,-2.31,0,*56
1507759487.08,23111,11.56,73930.8,-1.53,-2.31,-2.31,0,*57
1507759488.31,23112,11.56,73926.0,-1.53,-2.31,-2.31,0,*54
1507759489.54,23113,11.56,73928.5,-1.53,-2.31,-2.31,0,*55
1507759490.76,23114,11.56,73930.3,-1.53,-2.31,-2.27,0,*55
1507759491.98,23115,11.56,73928.8,-1.53,-2.31,-2.27,0,*54
1507759493.21,23116,11.56,73924.8,-1.53,-2.31,-2.31,0,*50
1507759494.43,23117,11.56,73924.0,-1.53,-2.31,-2.31,0,*51
1507759495.66,23118,11.56,73926.5,-1.53,-2.31,-2.27,0,*59
1507759496.88,23119,11.56,73926.8,-1.53,-2.31,-2.27,0,*58
1507759498.1,23120,11.56,73924.0,-1.53,-2.31,-2.31,0,*55
1507759499.33,23121,11.56,73918.8,-1.53,-2.27,-2.31,0,*53
1507759500.56,23122,11.56,73922.5,-1.53,-2.31,-2.31,0,*57
1507759501.78,23123,11.56,73924.5,-1.53,-2.31,-2.31,0,*56
1507759502.98,23124,11.56,73926.5,-1.51,-2.31,-2.31,0,*53
1507759504.21,23125,11.56,73924.5,-1.53,-2.31,-2.31,0,*50
1507759505.44,23126,11.56,73930.0,-1.53,-2.31,-2.31,0,*53
1507759506.67,23127,11.56,73926.5,-1.53,-2.31,-2.31,0,*52
1507759507.89,23128,11.56,73930.0,-1.53,-2.31,-2.31,0,*5D
1507759509.12,23129,11.56,73920.0,-1.53,-2.31,-2.31,0,*5C
1507759510.35,23130,11.56,73922.0,-1.53,-2.31,-2.31,0,*54
1507759511.58,23131,11.56,73922.8,-1.53,-2.31,-2.31,0,*55
1507759512.8,23132,11.56,73920.8,-1.53,-2.31,-2.27,0,*51
1507759514.02,23133,11.56,73916.8,-1.53,-2.31,-2.27,0,*50
1507759515.24,23134,11.56,73920.3,-1.53,-2.31,-2.27,0,*57
1507759516.46,23135,11.56,73920.5,-1.53,-2.31,-2.27,0,*56
1507759517.68,23136,11.56,73922.0,-1.53,-2.31,-2.27,0,*55
1507759518.87,23137,11.56,73916.8,-1.51,-2.31,-2.27,0,*56
1507759520.09,23138,11.56,73918.5,-1.53,-2.31,-2.27,0,*5B
1507759521.31,23139,11.56,73916.3,-1.53,-2.39,-2.27,0,*52
1507759522.53,23140,11.56,73918.5,-1.53,-2.31,-2.27,0,*54
1507759523.72,23141,11.56,73916.8,-1.51,-2.31,-2.27,0,*57
1507759524.94,23142,11.56,73918.8,-1.53,-2.31,-2.27,0,*56
1507759526.14,23143,11.56,73916.8,-1.51,-2.31,-2.27,0,*55
1507759527.33,23144,11.56,73924.0,-1.51,-2.39,-2.27,0,*5A
1507759528.53,23145,11.56,73926.0,-1.55,-2.35,-2.31,0,*54
1507759529.75,23146,11.56,73924.8,-1.53,-2.31,-2.27,0,*52
1507759530.97,23147,11.56,73924.5,-1.53,-2.31,-2.39,0,*5C
1507759532.17,23148,11.56,73928.8,-1.51,-2.31,-2.31,0,*59
1507759533.4,23149,11.56,73936.5,-1.53,-2.31,-2.31,0,*5A
1507759534.62,23150,11.56,73934.0,-1.53,-2.39,-2.31,0,*5A
1507759535.82,23151,11.56,73932.8,-1.51,-2.31,-2.31,0,*51
1507759537.05,23152,11.56,73936.3,-1.53,-2.31,-2.31,0,*50
1507759538.28,23153,11.56,73936.0,-1.53,-2.31,-2.31,0,*51
1507759539.51,23154,11.56,73934.3,-1.53,-2.31,-2.31,0,*56
1507759540.73,23155,11.56,73932.8,-1.53,-2.31,-2.31,0,*57
1507759541.93,23156,11.56,73934.3,-1.51,-2.39,-2.31,0,*5E
1507759543.13,23157,11.56,73936.3,-1.51,-2.31,-2.31,0,*57
1507759544.36,23158,11.56,73938.3,-1.53,-2.31,-2.31,0,*5A
1507759545.58,23159,11.56,73940.8,-1.53,-2.31,-2.31,0,*5B
1507759546.81,23160,11.56,73936.5,-1.53,-2.31,-2.31,0,*51
1507759548.04,23161,11.56,73936.0,-1.53,-2.31,-2.31,0,*50
1507759549.24,23162,11.56,73936.3,-1.51,-2.31,-2.31,0,*51
1507759550.44,23163,11.56,73938.0,-1.51,-2.31,-2.31,0,*50
1507759551.67,23164,11.56,73938.0,-1.53,-2.31,-2.31,0,*55
1507759552.9,23165,11.56,73936.5,-1.53,-2.31,-2.31,0,*54
1507759554.13,23166,11.56,73924.3,-1.53,-2.31,-2.31,0,*57
1507759555.35,23167,11.56,73930.5,-1.53,-2.31,-2.39,0,*5E
1507759556.55,23168,11.56,73922.8,-1.51,-2.31,-2.31,0,*5B
1507759557.77,23169,11.56,73926.0,-1.53,-2.39,-2.31,0,*50
1507759559.0,23170,11.56,73920.8,-1.53,-2.31,-2.31,0,*50
1507759560.22,23171,11.56,73916.8,-1.53,-2.39,-2.31,0,*59
1507759561.41,23172,11.56,73918.0,-1.51,-2.39,-2.31,0,*58
1507759562.63,23173,11.56,73916.3,-1.53,-2.39,-2.39,0,*53
1507759563.85,23174,11.56,73914.8,-1.53,-2.39,-2.31,0,*5C
1507759565.07,23175,11.56,73918.8,-1.53,-2.39,-2.43,0,*58
1507759566.3,23176,11.56,73920.5,-1.53,-2.31,-2.31,0,*56
1507759567.49,23177,11.56,73914.3,-1.51,-2.39,-2.39,0,*55
1507759568.71,23178,11.56,73918.3,-1.53,-2.43,-2.39,0,*55
1507759569.93,23179,11.56,73916.5,-1.53,-2.39,-2.39,0,*59
1507759571.14,23180,11.56,73910.0,-1.53,-2.39,-2.39,0,*5F
1507759572.36,23181,11.56,73892.8,-1.53,-2.39,-2.31,0,*56
1507759573.59,23182,11.56,73894.3,-1.53,-2.31,-2.31,0,*5D
1507759574.81,23183,11.56,73894.8,-1.53,-2.39,-2.39,0,*5C
1507759576.03,23184,11.56,73896.5,-1.53,-2.43,-2.31,0,*5E
1507759577.25,23185,11.56,73904.0,-1.53,-2.43,-2.39,0,*57
1507759578.47,23186,11.56,73910.3,-1.53,-2.43,-2.39,0,*54
1507759579.69,23187,11.56,73910.8,-1.53,-2.39,-2.39,0,*58
1507759580.91,23188,11.56,73912.3,-1.53,-2.39,-2.43,0,*5A
1507759582.12,23189,11.56,73914.3,-1.53,-2.39,-2.39,0,*56
1507759583.35,23190,11.56,73918.0,-1.53,-2.39,-2.31,0,*56
1507759584.53,23191,11.56,73912.5,-1.51,-2.39,-2.43,0,*50
1507759585.78,23192,11.56,73914.3,-1.53,-2.51,-2.39,0,*52
1507759587.0,23193,11.56,73912.3,-1.53,-2.43,-2.43,0,*5D
1507759588.24,23194,11.56,73912.8,-1.53,-2.51,-2.43,0,*59
1507759589.46,23195,11.56,73912.5,-1.53,-2.43,-2.43,0,*5B
1507759590.74,23196,11.56,73912.0,-1.53,-2.51,-2.51,0,*58
1507759591.96,23197,11.56,73910.8,-1.53,-2.43,-2.43,0,*59
1507759593.17,23198,11.56,73912.3,-1.53,-2.43,-2.43,0,*56
1507759594.39,23199,11.56,73910.0,-1.51,-2.51,-2.43,0,*56
1507759595.67,23200,11.56,73910.5,-1.53,-2.51,-2.51,0,*54
1507759596.95,23201,11.56,73914.8,-1.53,-2.51,-2.51,0,*55
1507759598.16,23202,11.56,73916.5,-1.53,-2.43,-2.43,0,*56
1507759599.41,23203,11.56,73914.5,-1.53,-2.43,-2.51,0,*54
1507759600.66,23204,11.56,73910.3,-1.51,-2.51,-2.51,0,*52
1507759601.92,23205,11.56,73904.3,-1.55,-2.55,-2.47,0,*54
1507759603.17,23206,11.56,73902.8,-1.55,-2.47,-2.55,0,*57
1507759604.43,23207,11.56,73900.8,-1.55,-2.47,-2.47,0,*55
1507759605.68,23208,11.56,73906.8,-1.55,-2.47,-2.55,0,*59
1507759606.94,23209,11.56,73908.0,-1.55,-2.47,-2.47,0,*5B
1507759608.22,23210,11.56,73916.5,-1.53,-2.51,-2.51,0,*55
1507759609.46,23211,11.56,73920.0,-1.53,-2.51,-2.43,0,*57
1507759610.68,23212,11.56,73926.3,-1.53,-2.43,-2.43,0,*57
1507759611.93,23213,11.56,73914.8,-1.55,-2.55,-2.47,0,*53
1507759613.18,23214,11.56,73908.8,-1.55,-2.55,-2.47,0,*54
1507759614.44,23215,11.56,73908.3,-1.55,-2.55,-2.47,0,*55
1507759615.69,23216,11.56,73906.8,-1.55,-2.47,-2.55,0,*56
1507759616.94,23217,11.56,73908.0,-1.53,-2.51,-2.43,0,*51
1507759618.21,23218,11.56,73914.0,-1.53,-2.51,-2.51,0,*5D
1507759619.47,23219,11.56,73912.3,-1.55,-2.47,-2.55,0,*59
1507759620.72,23220,11.56,73914.8,-1.55,-2.47,-2.47,0,*50
1507759621.98,23221,11.56,73912.3,-1.55,-2.55,-2.47,0,*52
1507759623.22,23222,11.56,73914.0,-1.53,-2.51,-2.43,0,*57
1507759624.47,23223,11.56,73908.5,-1.55,-2.55,-2.55,0,*53
1507759625.73,23224,11.56,73910.8,-1.55,-2.47,-2.47,0,*54
1507759626.98,23225,11.56,73912.8,-1.55,-2.55,-2.47,0,*56
1507759628.23,23226,11.56,73916.0,-1.55,-2.55,-2.47,0,*55
1507759629.49,23227,11.56,73916.0,-1.55,-2.47,-2.47,0,*57
1507759630.74,23228,11.56,73916.3,-1.55,-2.55,-2.55,0,*58
1507759631.99,23229,11.56,73916.3,-1.55,-2.55,-2.47,0,*5A
1507759633.25,23230,11.56,73924.3,-1.59,-2.47,-2.55,0,*5E
1507759634.53,23231,11.56,73924.5,-1.53,-2.51,-2.51,0,*56
1507759635.78,23232,11.56,73928.0,-1.55,-2.47,-2.55,0,*50
1507759637.04,23233,11.56,73934.3,-1.55,-2.47,-2.55,0,*51
1507759638.3,23234,11.56,73934.0,-1.55,-2.47,-2.55,0,*56
1507759639.55,23235,11.56,73930.8,-1.55,-2.55,-2.47,0,*57
1507759640.8,23236,11.56,73932.5,-1.55,-2.47,-2.47,0,*57
1507759642.05,23237,11.56,73926.8,-1.55,-2.55,-2.55,0,*56
1507759643.31,23238,11.56,73926.5,-1.55,-2.47,-2.47,0,*59
1507759644.56,23239,11.56,73924.0,-1.55,-2.55,-2.55,0,*58
1507759645.82,23240,11.56,73924.0,-1.55,-2.47,-2.55,0,*55
1507759647.07,23241,11.56,73926.0,-1.55,-2.55,-2.47,0,*54
1507759648.33,23242,11.56,73924.8,-1.55,-2.47,-2.47,0,*54
1507759649.58,23243,11.56,73922.3,-1.59,-2.55,-2.55,0,*59
1507759650.86,23244,11.56,73926.8,-1.53,-2.51,-2.51,0,*54
1507759652.11,23245,11.56,73924.8,-1.55,-2.55,-2.55,0,*53
1507759653.37,23246,11.56,73924.3,-1.55,-2.47,-2.47,0,*50
1507759654.62,23247,11.56,73926.3,-1.55,-2.55,-2.55,0,*51
1507759655.87,23248,11.56,73928.0,-1.55,-2.47,-2.55,0,*5D
1507759657.13,23249,11.56,73928.5,-1.59,-2.47,-2.47,0,*53
1507759658.39,23250,11.56,73924.3,-1.55,-2.47,-2.47,0,*57
1507759659.61,23251,11.56,73924.8,-1.55,-2.47,-2.43,0,*52
1507759660.84,23252,11.56,73924.3,-1.55,-2.47,-2.43,0,*51
1507759662.09,23253,11.56,73924.8,-1.59,-2.47,-2.47,0,*58
1507759663.35,23254,11.56,73930.3,-1.59,-2.47,-2.47,0,*5F
1507759664.6,23255,11.56,73926.0,-1.55,-2.55,-2.47,0,*51
1507759665.86,23256,11.56,73926.5,-1.55,-2.47,-2.47,0,*51
1507759667.12,23257,11.56,73926.3,-1.55,-2.47,-2.47,0,*50
1507759668.37,23258,11.56,73926.3,-1.55,-2.47,-2.47,0,*5F
1507759669.63,23259,11.56,73922.3,-1.55,-2.47,-2.47,0,*5E
1507759670.88,23260,11.56,73922.5,-1.55,-2.47,-2.47,0,*54
1507759672.14,23261,11.56,73924.3,-1.55,-2.47,-2.55,0,*56
1507759673.39,23262,11.56,73926.3,-1.55,-2.47,-2.47,0,*56
1507759674.65,23263,11.56,73934.3,-1.55,-2.55,-2.47,0,*54
1507759675.9,23264,11.56,73936.3,-1.55,-2.47,-2.47,0,*50
1507759677.16,23265,11.56,73932.3,-1.55,-2.47,-2.47,0,*51
1507759678.41,23266,11.56,73926.5,-1.55,-2.47,-2.47,0,*52
1507759679.67,23267,11.56,73928.8,-1.55,-2.55,-2.55,0,*53
1507759680.92,23268,11.56,73934.0,-1.59,-2.55,-2.47,0,*53
1507759682.18,23269,11.56,73932.8,-1.55,-2.47,-2.55,0,*5E
1507759683.43,23270,11.56,73932.5,-1.59,-2.47,-2.47,0,*59
1507759684.69,23271,11.56,73928.8,-1.55,-2.55,-2.47,0,*57
1507759685.94,23272,11.56,73920.5,-1.55,-2.47,-2.47,0,*57
1507759687.2,23273,11.56,73918.5,-1.55,-2.47,-2.55,0,*55
1507759688.45,23274,11.56,73914.5,-1.55,-2.47,-2.47,0,*51
1507759689.71,23275,11.56,73914.0,-1.55,-2.47,-2.47,0,*50
1507759690.94,23276,11.56,73910.5,-1.59,-2.47,-2.43,0,*5B
1507759692.19,23277,11.56,73912.5,-1.55,-2.47,-2.47,0,*52
1507759693.45,23278,11.56,73912.0,-1.55,-2.47,-2.47,0,*5D
1507759694.68,23279,11.56,73910.3,-1.59,-2.43,-2.47,0,*54
1507759695.93,23280,11.56,73906.8,-1.59,-2.55,-2.47,0,*55
1507759697.16,23281,11.56,73914.3,-1.59,-2.55,-2.43,0,*50
1507759698.41,23282,11.56,73918.0,-1.55,-2.47,-2.55,0,*5B
1507759699.63,23283,11.56,73916.0,-1.53,-2.43,-2.43,0,*5F
1507759700.88,23284,11.56,73918.0,-1.55,-2.47,-2.55,0,*5D
1507759702.11,23285,11.56,73916.3,-1.55,-2.47,-2.43,0,*5B
1507759703.33,23286,11.56,73922.0,-1.55,-2.55,-2.43,0,*5B
1507759704.55,23287,11.56,73922.3,-1.55,-2.55,-2.43,0,*5A